Location: Peebles
(55.6412°N, 3.1714°W)
Time: 14:24:30
(UTC+01:00)

deb Agena D - Pass Details

Date: 20 September 2024
Orbit: 793 x 976 km, 99.8° (Epoch: 03 October)

Event Time Altitude Azimuth Distance (km) Brightness Sun altitude
Rises 02:17:39 0° 24° (NNE) 3,454 10.5 -31.5°
Reaches altitude 10° 02:20:25 10° 37° (NE) 2,543 9.5 -31.4°
Maximum altitude 02:25:05 26° 93° (E) 1,719 7.9 -31.2°
Enters shadow 02:25:55 25° 106° (ESE) 1,759 7.8 -31.1°
